Location: Leuk
(46.3174°N, 7.6341°E)
Time: 18:34:05
(UTC+00:00)

ATLAS 5 CENTAUR R/B - Pass Details

Date: 09 March 2021
Orbit: 516 x 1142 km, 63.3° (Epoch: 15 April)

Event Time Altitude Azimuth Distance (km) Brightness Sun altitude
Exits shadow 05:00:46 11° 241° (WSW) 1,732 3.3 -10.0°
Maximum altitude 05:04:27 48° 316° (NW) 771 1.8 -9.3°
Drops below altitude 10° 05:08:52 10° 31° (NNE) 2,055 4.7 -8.6°
Sets 05:11:27 0° 37° (NE) 3,071 5.8 -8.1°
